Lid_Strength_Index
12 11 10 10 10 10 12 12 13 12 12 9 8 8 7 6 6 6 6 6 7 5 4 4 4 3 3 2 2 2 2 2 3 3 2 2 2 1 1 1 1 1 1 1
12 10 10 11 10 10 10 10 11 11 11 8 7 7 7 7 7 7 7 6 7 6 4 4 3 3 3 3 3 2 2 3 2 2 2 2 2 2 2 2 2 1 1 1
15 12 11 13 11 10 10 9 10 12 10 8 9 8 7 8 7 7 6 7 6 4 4 4 3 3 3 2 2 3 2 2 2 2 2 2 2 2 2 3 2 2 2 2
15 13 17 12 9 8 10 8 8 8 8 8 8 8 7 6 6 6 5 6 6 4 4 3 4 3 2 2 2 3 3 3 2 3 3 2 2 2 2 2 2 2 2 1
15 16 13 11 10 10 11 10 7 8 8 8 7 7 8 6 5 7 7 6 5 3 3 3 3 3 3 3 3 3 3 2 2 2 2 2 2 2 2 2 2 2 2 2
15 16 17 11 8 7 7 13 8 7 8 8 8 11 10 7 7 7 6 5 4 3 3 4 4 3 3 3 3 3 2 2 1 2 2 2 2 2 2 2 2 1 2 2
15 16 13 8 7 6 13 12 8 7 7 8 9 8 7 7 5 4 4 4 3 4 4 4 4 3 3 3 3 2 2 2 2 2 2 2 3 3 2 2 2 3 3 2
15 17 16 7 7 11 9 8 7 7 6 7 7 6 6 5 5 4 4 4 4 4 4 4 3 3 3 3 2 2 2 2 2 2 2 2 3 3 3 3 3 3 3 3
12 13 8 6 7 5 6 7 7 7 6 6 6 6 5 5 5 4 5 4 3 3 4 3 3 3 4 4 3 3 4 4 3 3 3 2 3 3 4 4 4 4 3 3
11 9 8 7 5 5 5 6 5 5 5 5 6 5 6 6 5 5 5 5 5 4 4 4 4 4 5 5 5 5 5 5 4 4 4 4 3 3 4 4 5 4 4 4
11 8 7 7 6 5 5 5 5 5 5 5 5 6 6 6 6 5 5 4 4 4 5 5 6 6 5 5 5 6 5 4 4 3 3 3 3 3 3 3 4 3 4 4
11 7 7 7 5 4 5 5 5 5 5 4 5 6 5 5 5 5 5 5 6 6 6 6 6 6 6 6 6 6 6 5 5 5 4 4 4 4 4 5 6 7 8 7
8 7 6 7 7 5 6 7 5 4 4 5 4 4 4 5 6 6 6 6 7 6 6 6 6 6 5 5 6 7 7 7 6 6 5 5 5 5 5 5 6 7 8 8
6 7 8 7 8 6 5 5 5 4 4 4 4 5 6 6 6 7 7 7 7 7 6 6 6 6 6 6 7 7 7 6 7 6 6 6 6 6 6 6 5 4 5 6
6 7 7 6 5 5 4 4 5 5 4 5 5 6 6 7 8 8 7 7 7 8 8 7 7 7 7 7 7 8 7 7 7 7 7 6 6 6 6 5 5 5 4 5
6 6 5 5 5 5 5 5 5 6 5 6 7 7 7 8 8 8 8 8 10 9 9 9 9 8 7 7 8 7 6 5 5 6 6 6 6 6 6 6 6 6 5 5
6 7 6 6 6 5 5 5 5 6 6 6 6 7 7 8 9 9 9 9 9 9 9 9 8 8 8 8 8 7 7 7 6 6 7 6 6 7 6 6 6 5 5 4
5 5 5 5 5 6 6 5 5 6 6 6 6 7 8 8 9 10 9 8 9 9 9 8 8 9 9 8 8 8 8 7 7 7 7 7 7 7 7 7 7 7 6 6
4 4 4 5 6 6 5 5 5 5 6 6 7 8 9 9 9 8 9 9 10 10 9 9 6 8 9 7 7 9 8 8 7 7 7 7 7 7 7 7 7 7 8 7
4 5 5 5 5 5 6 6 6 7 7 8 8 8 8 8 8 8 9 10 10 9 8 8 9 9 9 8 5 8 8 8 7 7 7 7 7 7 7 8 8 8 9 10
5 5 5 5 6 6 6 7 7 8 7 7 7 8 9 8 8 9 10 10 9 8 8 6 7 8 7 6 7 8 8 8 8 7 7 7 7 7 7 8 8 8 9 10
5 5 5 5 6 6 7 7 7 7 7 7 7 7 8 8 8 8 9 9 8 6 7 8 7 5 5 2 7 8 8 8 9 8 8 7 7 7 7 7 8 8 9 10
6 7 6 6 6 7 7 7 7 7 7 7 8 7 7 7 7 8 8 7 6 5 6 6 5 3 2 4 7 7 7 7 8 8 8 8 7 7 7 7 7 8 9 11
6 6 6 6 7 7 7 7 7 7 7 7 7 7 8 8 7 6 7 6 4 4 5 5 5 3 2 5 6 6 6 7 8 8 8 8 8 7 7 7 7 8 8 10
6 6 6 6 7 7 7 7 8 8 8 8 7 7 6 6 6 7 6 6 4 4 5 4 3 3 4 5 6 6 6 6 6 7 7 8 8 8 7 6 7 8 9 9
4 5 5 5 6 7 7 7 8 8 8 8 7 6 6 6 5 5 6 5 6 6 5 5 5 5 5 5 5 5 6 5 6 6 7 7 8 8 8 8 8 8 9 9
5 6 6 6 6 6 5 6 6 7 7 6 6 6 5 5 5 5 6 6 6 6 5 4 5 4 4 4 4 5 5 5 6 6 6 7 7 7 8 9 9 9 9 10